Regional Weather Roundup
Issued by NWS

Home | Current Version | Previous Version | Text Only | Print | Product List | Glossary On
Versions: 1 2 3 4 5 6 7 8 9 10 11 12 13 14 15 16 17 18 19 20 21 22 23 24 25 26 27 28 29 30 31 32 33 34 35 36 37 38 39 40 41 42 43 44 45 46 47 48 49 50
000
ASHW40 PHFO 160943
RWRHI

WEATHER ROUNDUP FOR HAWAII
NATIONAL WEATHER SERVICE HONOLULU HI
1100 PM HST MON SEP 15 2014

THIS IS AN AUTOMATED REPORT THAT HAS NOT BEEN QUALITY CONTROLLED.

NOTE..."FAIR" INDICATES FEW OR NO CLOUDS BELOW 12,000 FEET WITH NO
SIGNIFICANT WEATHER AND/OR OBSTRUCTIONS TO VISIBILITY.

* - THESE SITES REPORT LIMITED FIELDS

HIZ001>004-161000-
KAUAI-NIIHAU-

CITY           SKY/WX    TMP DP  RH WIND       PRES   REMARKS
LIHUE APT      PTCLDY    77  70  78 N6        29.99S
PORT ALLEN*      N/A     73 N/A N/A N5          N/A
POIPU*           N/A     77 N/A N/A N3          N/A
PRINCEVILLE*   NOT AVBL
KOKOLE POINT*    N/A     75 N/A N/A MISG        N/A
MOLOAA DAIRY*  NOT AVBL
WAIMEA HTS*      N/A    N/A N/A N/A N2G8        N/A
PUU OPAE*        N/A     70  57  64 CALM        N/A
PUU LUA*       NOT AVBL
MAKAHA RIDGE*  NOT AVBL
$$

HIZ005>011-161000-
OAHU-

CITY           SKY/WX    TMP DP  RH WIND       PRES   REMARKS
HONOLULU       PTCLDY    80  69  69 N5        29.96S
KALAELOA       CLEAR     76  68  76 CALM      29.97S
KANEOHE MCB    CLEAR     79  72  79 NE8       29.96F
WHEELER FIELD  FAIR      73  68  85 NW6       29.98F
BELLOWS*         N/A    N/A N/A N/A NE10        N/A
KAHUKU*          N/A    N/A N/A N/A NE5G12      N/A
WHEELER*       NOT AVBL
WAIANAE HARBOR NOT AVBL
DILLINGHAM*      N/A     73  70  88 E1          N/A
KAHUKU TRN*      N/A     77  72  83 NE5G14      N/A
KAWAILOA*      NOT AVBL
KII*             N/A     81  73  78 NE9         N/A
MAKUA RANGE*     N/A     79  70  73 E3G12       N/A
OAHU FOREST NW   N/A     70  68  94 NE14G24     N/A
SCHOFIELD BRK*   N/A     70  66  88 S1          N/A
SCHOFIELD S*   NOT AVBL
WAIANAE VLY*     N/A     79  64  61 N6G25       N/A
KUAOKALA*        N/A     75  68  78 CALM        N/A
HONOULIUULI*   NOT AVBL
MOKUOLOE IS*     N/A    N/A N/A N/A MISG        N/A
PALEHUA*         N/A     81  66  61 CALM        N/A
WAIAWA PHB*    NOT AVBL
$$

HIZ012>013-161000-
MOLOKAI-

CITY           SKY/WX    TMP DP  RH WIND       PRES   REMARKS
MOLOKAI AIRPT  LGT RAIN  77  75  94 NE5       29.97F
KALAUPAPA      NOT AVBL
MAKAPULAPAI*     N/A     79  73  83 E9G15       N/A
MOLOKAI 1*       N/A     66  63  88 SE3G10      N/A
PUU ALII*        N/A     62  61  97 E2G10       N/A
$$

HIZ016-161000-
KAHOOLAWE-

CITY           SKY/WX    TMP DP  RH WIND       PRES   REMARKS
KAHOOLAWE*       N/A     73 N/A N/A NE10G17     N/A
HAKIOAWA*      NOT AVBL
HONOKANAIA*      N/A     79  71  75 VRB8G21   29.96S
KANELOA*         N/A     79  70  73 NE6G21    29.19R
KEALIALALO*    NOT AVBL
LUA MAKIKA*    NOT AVBL
$$

HIZ014>015-161000-
LANAI-

CITY           SKY/WX    TMP DP  RH WIND       PRES   REMARKS
LANAI CITY       N/A    N/A N/A N/A MISG        N/A
LANAI 1*         N/A     72  72 100 NE18G26     N/A
$$

HIZ017>028-161000-
MAUI-

CITY           SKY/WX    TMP DP  RH WIND       PRES   REMARKS
KAHULUI        PTCLDY    77  71  82 NE5       29.96S
KAPALUA-W MAUI NOT AVBL
HANA AIRPORT   CLEAR     70  68  94 S3        29.99S
HANA*            N/A     73 N/A N/A S3          N/A
HALEAKALA SUMM   N/A     48  16  27 VRB5G22     N/A
MAALAEA BAY*   NOT AVBL
HALEAKALA*     NOT AVBL
KAUPO GAP*     NOT AVBL
KULA 1*          N/A     56  33  42 E3          N/A
$$

HIZ023>026-161000-
BIG ISLAND OF HAWAII COAST AND LOWER SLOPES-

CITY           SKY/WX    TMP DP  RH WIND       PRES   REMARKS
KAILUA KONA    PTCLDY    81  72  74 SE7       29.93S
HILO           CLEAR     76  70  82 SW5       29.95F
HONOKAA*       NOT AVBL
KAWAIHAE MWT*    N/A     81 N/A N/A NE7         N/A
KAWAIHAE*        N/A     81 N/A N/A NE3         N/A
SOUTH POINT*     N/A     73 N/A N/A N6          N/A
UPOLU AIRPORT*   N/A    N/A N/A N/A E9          N/A
KAMUELA*       SUNNY     64  61  88 NE9       30.07F
HAKALAU*         N/A     48  43  81 SW3         N/A
KALOKO-HONOKO* NOT AVBL
PALI 2*          N/A     68  63  83 N6G16       N/A
KEALAKOMO*       N/A     81  72  74 N2G9        N/A
KAUPULEHU*       N/A    N/A N/A N/A SW2G12      N/A
KAPAPALA*        N/A     71  70  95 CALM        N/A
LOWER KAHUKU*  NOT AVBL
PUHE CS*       NOT AVBL
PUHO CS*         N/A     79  69  72 E2          N/A
PTA KEAMUKU*     N/A     63  55  77 E5G12       N/A
WAIKOLOA*        N/A    N/A N/A N/A NE9G16      N/A
$$

HIZ027>028-161000-
BIG ISLAND OF HAWAII INTERIOR AND SUMMMITS-

CITY           SKY/WX    TMP DP  RH WIND       PRES   REMARKS
BRADSHAW FIELD MOCLDY    57  57 100 CALM      30.32S
MK VISITOR CEN NOT AVBL
MAUNA KEA*       N/A     41  12  30 CALM        N/A
MAUNA LOA*       N/A     45  37  76 MISG        N/A
MAUNA LOA 1*     N/A     46  39  76 MISG        N/A
PTA KIPUKA*      N/A     57  55  94 CALM        N/A
PTA RANGE 17*    N/A     61  59  94 CALM        N/A
PTA WEST*        N/A     59  57  94 SE7         N/A
NENE CABIN*    NOT AVBL
AHUMOA*          N/A     54  50  87 E1          N/A
PTA PORTABLE*  NOT AVBL
PUU MALI*      NOT AVBL
$$

HIC003-161000-
NORTHWEST ISLANDS-

CITY           SKY/WX    TMP DP  RH WIND       PRES   REMARKS
MIDWAY ISLAND  CLEAR     81  75  83 CALM      30.13S
MIDWAY NOS*    NOT AVBL
FRENCH FRIGATE NOT AVBL
$$

PHZ110>124-180-161000-
BUOY REPORTS

STATION/POSITION TIME  TEMP    WIND        PRES    WAVE   SWELL
                       AIR SEA DIR/SP/G            HT/PER HT/DIR
                 (UTC) (F)     (DEG/KT/KT) (MB)    (FT/S) (FT/D)
BUOY 51001       NOT AVBL
BUOY 51101       NOT AVBL
BUOY 51100       0900   80 82   30/  8/ 10 1014.3S
BUOY 51003       0900   82 84   50/  6/  8 1014.0S   5/15   5
BUOY 51004       0758   79 81   90/  8/ 10 1014.2R   6/15   5/190
BARBERS PT BUOY  NOT AVBL
WAIMEA BAY BUOY  0900      82                N/A     4/10   2/310
KAILUA BAY BUOY  0900      83                N/A     3/10   2/110
LANAI BUOY       NOT AVBL
BARBERS PT 2     0900      83                N/A     5/15   5/190
PAUWELA MAUI     0900      81                N/A     4/12   2/320
HILO             0900      82                N/A     4/11   2/100
KANEOHE BAY BUOY NOT AVBL
HANALEI KAUAI    NOT AVBL
KAHULUI HARBOR   0900   80 84   20/  6/  7 1014.3F
HONOLULU HARBOR  0900   81      50/  5/  9 1014.6F
KILO NALU        NOT AVBL
HILO HARBOR      0900   76     200/  4/  5 1013.7F
MOKUOLOE         0900   80 86   50/  6/  8 1014.8F
NAWILIWILI       0900      83                N/A
WHOTS BUOY       NOT AVBL
BUOY 51028       NOT AVBL
$$

......................KEY........................................
  SKY/WX - SKY CONDITIONS/PRESENT WEATHER
  TMP    - TEMPERATURE IN FAHRENHEIT
  DWPT   - DEWPOINT IN FAHRENHEIT
  RH     - RELATIVE HUMIDITY IN PERCENT
  WIND   - DIRECTION AND SPEED /MPH FOR ISLANDS...KTS FOR BUOYS/
  PRES   - MEAN SEA LEVEL PRESSURE IN INCHES OF HG
  VSB    - VISIBILITY IN MILES
  HX     - HEAT INDEX
  WCI    - WIND CHILL INDEX
  VRB    - VARIABLE WIND DIRECTION
  N/A    - NOT AVAILABLE



USA.gov is the U.S. government's official web portal to all federal, state and local government web resources and services.